#
# The Tor Project
#
# URL: https://metrics.torproject.org/networksize.csv?start=2020-03-12&end=2020-10-25
#
date,relays,bridges
2020-03-12,6547,1350
2020-03-13,6559,1344
2020-03-14,6557,1344
2020-03-15,6591,1350
2020-03-16,6693,1348
2020-03-17,6615,1365
2020-03-18,6584,1366
2020-03-19,6688,1366
2020-03-20,6837,1366
2020-03-21,6835,1352
2020-03-22,6858,1350
2020-03-23,6864,1346
2020-03-24,6858,1355
2020-03-25,6845,1351
2020-03-26,6844,1357
2020-03-27,6868,1354
2020-03-28,6830,1340
2020-03-29,6830,1338
2020-03-30,6843,1345
2020-03-31,6909,1346
2020-04-01,6977,1359
2020-04-02,6999,1357
2020-04-03,7030,1354
2020-04-04,6965,1343
2020-04-05,6916,1346
2020-04-06,6996,1352
2020-04-07,7002,1359
2020-04-08,6984,1342
2020-04-09,6961,1311
2020-04-10,6911,1332
2020-04-11,6859,1295
2020-04-12,6827,1317
2020-04-13,6881,1326
2020-04-14,6895,1326
2020-04-15,6878,1316
2020-04-16,6849,1307
2020-04-17,6881,1303
2020-04-18,6850,1299
2020-04-19,6831,1296
2020-04-20,6812,1303
2020-04-21,6772,1276
2020-04-22,6740,1303
2020-04-23,6707,1300
2020-04-24,6713,1290
2020-04-25,6712,1288
2020-04-26,6695,1294
2020-04-27,6711,1302
2020-04-28,6717,1305
2020-04-29,6665,1291
2020-04-30,6666,1301
2020-05-01,6782,1311
2020-05-02,6789,1313
2020-05-03,6780,1317
2020-05-04,6820,1325
2020-05-05,6852,1332
2020-05-06,6876,1329
2020-05-07,6869,1344
2020-05-08,6695,1278
2020-05-09,6628,1264
2020-05-10,6603,1263
2020-05-11,6575,1255
2020-05-12,6554,1235
2020-05-13,6536,1230
2020-05-14,6540,1227
2020-05-15,6531,1221
2020-05-16,6494,1213
2020-05-17,6470,1212
2020-05-18,6456,1207
2020-05-19,6478,1206
2020-05-20,6297,1214
2020-05-21,6135,1217
2020-05-22,6024,1222
2020-05-23,6022,1225
2020-05-24,6018,1225
2020-05-25,6033,1232
2020-05-26,6069,1239
2020-05-27,6115,1243
2020-05-28,6116,1257
2020-05-29,6141,1294
2020-05-30,6128,1287
2020-05-31,6129,1289
2020-06-01,6264,1306
2020-06-02,6311,1304
2020-06-03,6315,1299
2020-06-04,6312,1304
2020-06-05,6308,1316
2020-06-06,6300,1317
2020-06-07,6317,1324
2020-06-08,6318,1331
2020-06-09,6299,1339
2020-06-10,6285,1342
2020-06-11,6239,1336
2020-06-12,6228,1341
2020-06-13,6215,1341
2020-06-14,6253,1340
2020-06-15,6264,1345
2020-06-16,6247,1355
2020-06-17,6226,1350
2020-06-18,6202,1354
2020-06-19,6212,1343
2020-06-20,6239,1340
2020-06-21,6254,1352
2020-06-22,6097,1353
2020-06-23,6119,1350
2020-06-24,6138,1349
2020-06-25,6157,1355
2020-06-26,6131,1359
2020-06-27,6144,1358
2020-06-28,6148,1355
2020-06-29,6187,1364
2020-06-30,6181,1365
2020-07-01,6377,1365
2020-07-02,6419,1368
2020-07-03,6437,1364
2020-07-04,6451,1368
2020-07-05,6451,1357
2020-07-06,6481,1352
2020-07-07,6490,1354
2020-07-08,6506,1358
2020-07-09,6532,1361
2020-07-10,6514,1358
2020-07-11,6491,1360
2020-07-12,6437,1361
2020-07-13,6439,1368
2020-07-14,6433,1367
2020-07-15,6441,1364
2020-07-16,6440,1367
2020-07-17,6430,1366
2020-07-18,6416,1380
2020-07-19,6409,1458
2020-07-20,6421,1580
2020-07-21,6349,1584
2020-07-22,6313,1586
2020-07-23,6305,1588
2020-07-24,6301,1588
2020-07-25,6409,1578
2020-07-26,6411,1581
2020-07-27,6386,1577
2020-07-28,6379,1573
2020-07-29,6358,1569
2020-07-30,6283,1575
2020-07-31,6359,1570
2020-08-01,6728,1582
2020-08-02,6765,1586
2020-08-03,6812,1594
2020-08-04,6789,1602
2020-08-05,6813,1605
2020-08-06,6855,1590
2020-08-07,6840,1564
2020-08-08,6814,1558
2020-08-09,6779,1563
2020-08-10,6677,1566
2020-08-11,6641,1549
2020-08-12,6641,1559
2020-08-13,6728,1589
2020-08-14,6716,1552
2020-08-15,6747,1471
2020-08-16,6742,1479
2020-08-17,6731,1488
2020-08-18,6714,1486
2020-08-19,6702,1490
2020-08-20,6611,1485
2020-08-21,6580,1484
2020-08-22,6577,1486
2020-08-23,6570,1483
2020-08-24,6512,1584
2020-08-25,6507,1597
2020-08-26,6483,1595
2020-08-27,6423,1597
2020-08-28,6413,1595
2020-08-29,6420,1597
2020-08-30,6401,1596
2020-08-31,6412,1605
2020-09-01,6779,1615
2020-09-02,6796,1608
2020-09-03,6829,1606
2020-09-04,6830,1639
2020-09-05,6830,1677
2020-09-07,6799,1558
2020-09-08,6771,1685
2020-09-09,6686,1686
2020-09-10,6641,1689
2020-09-11,6645,1688
2020-09-12,6624,1688
2020-09-13,6614,1695
2020-09-14,6594,1702
2020-09-15,6656,1702
2020-09-16,6695,1689
2020-09-17,6670,1697
2020-09-18,6679,1691
2020-09-19,6626,1689
2020-09-20,6438,1687
2020-09-21,6443,1689
2020-09-22,6454,1685
2020-09-23,6471,1630
2020-09-24,6476,1684
2020-09-25,6473,1676
2020-09-26,6454,1670
2020-09-27,6505,1664
2020-09-28,6489,1666
2020-09-29,6446,1596
2020-09-30,6472,1588
2020-10-01,6935,1595
2020-10-02,6991,1592
2020-10-03,7033,1587
2020-10-04,7043,1593
2020-10-05,7046,1598
2020-10-06,7038,1594
2020-10-07,7028,1602
2020-10-08,7031,1607
2020-10-09,7051,1600
2020-10-10,7024,1596
2020-10-11,6983,1597
2020-10-12,6965,1603
2020-10-13,6924,1601
2020-10-14,6925,1597
2020-10-15,6921,1593
2020-10-16,6892,1594
2020-10-17,6873,1601
2020-10-18,6878,1675
2020-10-19,6857,1672
2020-10-20,6800,1668
2020-10-21,6764,1663
2020-10-22,6728,1607
2020-10-23,6734,1614
2020-10-24,6734,1660
2020-10-25,6726,1654
